Home   Weather   Yangon   Past weeks

Flag for Myanmar Past Weather in Yangon, Myanmar — Yesterday and Last 2 Weeks

88 °F

Partly sunny.

Feels Like: 100 °F
Forecast: 78 / 85 °F
Wind: 12 mph from Southeast

Location: Rangoon Airport

Current Time: Oct 25, 2016 at 3:02:01 PM

Latest Report: Oct 25, 2016 at 2:30 PM

Visibility: 5 mi

Pressure: 29.71 "Hg

Humidity: 70%

Dew Point: 77 °F

Location of YangonLocation

Past Weather in Yangon — Graph


Yangon Temperature Yesterday

Maximum temperature yesterday: 88 °F (at 1:30 PM)
Minimum temperature yesterday: 75 °F (at 6:00 AM)
Average temperature yesterday: 81 °F

High & Low Weather Summary for the Past Weeks

High93 °F (Oct 20, 12:30 PM)100% (Oct 10, 8:30 PM)29.86 "Hg (Oct 10, 8:30 PM)
Low75 °F (Oct 16, 7:00 AM)52% (Oct 12, 2:00 PM)29.62 "Hg (Oct 19, 3:00 PM)
Average82 °F87%29.75 "Hg
* Reported Oct 10 1:30 PM — Oct 25 1:30 PM, Yangon, Weather by CustomWeather, © 2016

Note: Actual official high and low records may vary slightly from our data, if they occured in-between our weather recording intervals... More about our weather records


Yangon Weather History for the Previous 24 Hours

Scroll right to see more
Time TempWeatherWind HumidityBarometerVisibility
1:30 PM
Tue, Oct 25
88 °FPartly sunny.12 mph70%29.71 "Hg5 mi
1:00 PM86 °FPartly sunny.8 mph75%29.74 "Hg5 mi
12:30 PM82 °FPartly sunny.2 mph94%29.74 "Hg4 mi
12:00 PM82 °FDrizzle. Partly sunny.5 mph94%29.77 "Hg4 mi
11:30 AM82 °FRain. Mostly cloudy.12 mph94%29.77 "Hg2 mi
11:00 AM82 °FDrizzle. Mostly cloudy.12 mph94%29.77 "Hg4 mi
10:30 AM84 °FPartly sunny.6 mph74%29.80 "Hg5 mi
10:00 AM84 °FPartly sunny.6 mph74%29.80 "Hg5 mi
9:30 AM82 °FScattered clouds.6 mph84%29.80 "Hg4 mi
9:00 AM81 °FPassing clouds.6 mph94%29.80 "Hg4 mi
8:30 AM79 °FPassing clouds.6 mph94%29.77 "Hg4 mi
8:00 AM79 °FPassing clouds.6 mph94%29.77 "Hg4 mi
7:30 AM77 °FPassing clouds.6 mph89%29.74 "Hg4 mi
7:00 AM75 °FFog.3 mph100%29.74 "Hg2 mi
6:30 AM75 °FFog.3 mph100%29.71 "Hg2 mi
6:00 AM75 °FFog.3 mph100%29.71 "Hg2 mi
5:30 AM75 °FFog.3 mph100%29.71 "Hg3 mi
5:00 AM75 °FFog.3 mph100%29.71 "Hg3 mi
4:30 AM75 °FPassing clouds.3 mph100%29.71 "Hg4 mi
12:30 AM75 °FPassing clouds.3 mph94%29.74 "Hg4 mi
10:30 PM
Mon, Oct 24
77 °FMostly cloudy.8 mph89%29.77 "Hg4 mi
10:00 PM77 °FMostly cloudy.8 mph89%29.77 "Hg4 mi
9:30 PM77 °FMostly cloudy.3 mph89%29.74 "Hg4 mi
9:00 PM79 °FMostly cloudy.3 mph94%29.74 "Hg4 mi
8:30 PM79 °FMostly cloudy.6 mph94%29.74 "Hg4 mi
8:00 PM79 °FMostly cloudy.6 mph94%29.74 "Hg4 mi
7:30 PM79 °FMostly cloudy.6 mph94%29.71 "Hg4 mi
7:00 PM79 °FMostly cloudy.6 mph94%29.71 "Hg4 mi
6:30 PM79 °FMostly cloudy.6 mph94%29.68 "Hg4 mi
6:00 PM79 °FLight rain. Mostly cloudy.6 mph100%29.68 "Hg3 mi
5:30 PM79 °FRain. Partly sunny.9 mph100%29.65 "Hg3 mi
5:00 PM82 °FScattered clouds.9 mph84%29.65 "Hg5 mi
4:30 PM84 °FScattered clouds.9 mph70%29.65 "Hg5 mi
4:00 PM88 °FPassing clouds.12 mph66%29.65 "Hg6 mi
3:30 PM88 °FPassing clouds.12 mph66%29.65 "Hg6 mi
3:00 PM88 °FScattered clouds.12 mph70%29.65 "Hg6 mi
Weather by CustomWeather, © 2016

See weather overviewHow to use our weather pages